Location: Altleiningen
(49.5078°N, 8.0741°E)
Time: 22:22:23
(UTC+00:00)

Resurs 01 Rocket - Pass Details

Date: 03 March 2021
Orbit: 635 x 643 km, 98.0° (Epoch: 13 April)

Event Time Altitude Azimuth Distance (km) Brightness Sun altitude
Exits shadow 20:50:14 24° 301° (WNW) 1,321 3.8 -34.3°
Drops below altitude 10° 20:52:36 10° 327° (NNW) 2,034 4.9 -34.6°
Sets 20:55:02 0° 338° (NNW) 2,949 5.8 -34.9°
